ILAIGU24 Weather Reports


time (UTC)temp
C
wind
direction
speed
KPH
gust
KPH
rain 1hr
cm
rain 24hr
cm
rain mn
cm
humidity
%
barometer
mb
20260507013004 13 242 3.2 6.4 0.00 0.25 0.00 88 1011.7
20260507011516 13 242 3.2 6.4 0.00 0.25 0.00 88 1011.7
20260507010004 13 242 3.2 6.4 0.00 0.25 0.00 89 1011.7
20260507004523 13 242 3.2 6.4 0.00 0.25 0.00 89 1011.8
20260507003004 13 242 3.2 6.4 0.00 0.25 0.00 89 1011.8
20260507001508 13 242 4.8 6.4 0.00 0.25 0.00 89 1011.6
20260507000014 13 242 1.6 6.4 0.00 0.28 0.00 88 1011.6
20260506234509 13 242 1.6 6.4 0.00 0.28 0.00 88 1011.7
20260506233012 13 242 1.6 4.8 0.00 0.30 0.00 88 1011.7
20260506231517 13 242 1.6 6.4 0.00 0.33 0.00 88 1011.7
20260506230013 13 242 3.2 4.8 0.00 0.36 0.00 87 1011.7
20260506224512 13 242 3.2 4.8 0.00 0.36 0.00 87 1011.7
20260506223014 14 242 1.6 6.4 0.00 0.36 0.00 87 1011.7
20260506221512 14 242 3.2 8.0 0.00 0.36 0.00 87 1011.7
20260506220012 14 242 3.2 6.4 0.00 0.36 0.00 86 1011.6
20260506214511 14 245 3.2 6.4 0.00 0.36 0.36 86 1011.5
20260506213010 15 259 3.2 6.4 0.00 0.36 0.36 84 1011.7
20260506211516 15 259 0.0 1.6 0.00 0.36 0.36 82 1011.5
20260506210016 16 259 0.0 0.0 0.00 0.36 0.36 79 1011.4
20260506204516 16 130 1.6 12.9 0.00 0.36 0.36 79 1011.3
20260506203022 16 70 8.0 17.7 0.00 0.36 0.36 79 1011.3
20260506201529 17 314 0.0 4.8 0.00 0.36 0.36 78 1011.1
20260506200015 17 90 0.0 4.8 0.00 0.36 0.36 78 1010.9
20260506194521 17 287 0.0 9.7 0.00 0.36 0.36 78 1010.6
20260506193021 17 112 1.6 16.1 0.00 0.36 0.36 77 1010.2
20260506191516 17 113 0.0 4.8 0.00 0.36 0.36 76 1010.1
20260506190022 17 135 0.0 3.2 0.00 0.36 0.36 75 1009.7
20260506184521 17 276 1.6 9.7 0.00 0.36 0.36 74 1009.5
20260506183027 17 293 1.6 8.0 0.00 0.36 0.36 73 1009.3
20260506181520 17 311 6.4 14.5 0.00 0.36 0.36 73 1009.3
20260506180008 17 143 1.6 22.5 0.00 0.36 0.36 73 1009.0
20260506174508 17 118 0.0 20.9 0.00 0.36 0.36 73 1009.0
20260506173004 17 144 1.6 16.1 0.00 0.36 0.36 73 1009.0
20260506171504 18 158 1.6 17.7 0.00 0.36 0.36 71 1009.0
20260506170003 18 101 3.2 17.7 0.00 0.36 0.36 71 1009.0
20260506164506 18 109 3.2 17.7 0.00 0.36 0.36 71 1009.0
20260506163004 18 94 3.2 17.7 0.00 0.36 0.36 71 1008.9
20260506161508 18 98 4.8 22.5 0.00 0.36 0.36 70 1009.0
20260506160008 18 252 3.2 16.1 0.00 0.36 0.36 70 1008.9
20260506154503 18 111 6.4 19.3 0.00 0.36 0.36 70 1009.0
20260506153004 18 10 3.2 17.7 0.00 0.36 0.36 70 1008.9
20260506151506 18 68 3.2 17.7 0.00 0.36 0.36 71 1009.0
20260506150008 18 121 1.6 12.9 0.00 0.36 0.36 72 1008.9
20260506144515 18 121 6.4 24.1 0.00 0.36 0.36 72 1009.0
20260506143020 18 115 4.8 19.3 0.00 0.36 0.36 71 1009.0
20260506141507 18 75 6.4 29.0 0.00 0.36 0.36 70 1008.8
20260506140007 18 30 3.2 22.5 0.00 0.36 0.36 70 1009.0
20260506134513 18 213 8.0 32.2 0.00 0.36 0.36 70 1009.1
20260506133016 19 112 11.3 19.3 0.00 0.36 0.36 69 1009.3
20260506131515 19 88 6.4 19.3 0.00 0.36 0.36 69 1009.2
20260506130015 19 112 6.4 24.1 0.00 0.36 0.36 69 1009.2
20260506124507 19 107 4.8 29.0 0.00 0.36 0.36 70 1009.3
20260506123008 19 82 4.8 17.7 0.00 0.36 0.36 68 1009.2
20260506121522 19 24 3.2 22.5 0.00 0.36 0.36 69 1009.2
20260506120037 19 146 3.2 22.5 0.00 0.36 0.36 68 1009.4
20260506114522 19 197 6.4 25.7 0.00 0.36 0.36 69 1009.4
20260506113032 19 313 6.4 27.4 0.00 0.36 0.36 70 1009.4
20260506111528 19 117 4.8 24.1 0.00 0.36 0.36 68 1009.4
20260506110013 19 92 8.0 30.6 0.00 0.36 0.36 66 1009.6
20260506104525 19 100 9.7 29.0 0.00 0.36 0.36 66 1009.6
20260506103030 19 119 9.7 22.5 0.00 0.36 0.36 70 1009.7
20260506101511 18 360 8.0 24.1 0.00 0.36 0.36 70 1009.7
20260506100018 18 84 9.7 24.1 0.00 0.36 0.36 70 1009.8
20260506094520 18 241 8.0 22.5 0.00 0.36 0.36 68 1009.7
20260506093019 18 92 3.2 12.9 0.00 0.36 0.36 68 1009.7
20260506091526 18 252 4.8 12.9 0.00 0.36 0.36 70 1009.7
20260506090018 18 107 1.6 4.8 0.00 0.36 0.36 70 1009.6
20260506084507 18 125 1.6 9.7 0.00 0.36 0.36 72 1009.6
20260506083006 18 123 1.6 9.7 0.00 0.36 0.36 72 1009.6
20260506081504 17 129 1.6 11.3 0.00 0.36 0.36 74 1009.7
20260506073015 16 144 3.2 11.3 0.00 0.46 0.36 78 1009.6
20260506071505 16 290 0.0 11.3 0.00 0.46 0.36 78 1009.4
20260506061543 14 283 3.2 6.4 0.00 0.46 0.36 90 1008.8
20260506044524 13 246 0.0 6.4 0.23 0.46 0.36 91 1009.4
20260506043031 13 280 6.4 17.7 0.18 0.38 0.28 91 1009.7
20260506041521 13 250 8.0 12.9 0.05 0.28 0.18 92 1009.7
20260506040019 13 250 3.2 6.4 0.00 0.25 0.10 92 1009.5
20260506034509 13 246 3.2 6.4 0.00 0.28 0.10 92 1009.6
20260506033027 13 248 3.2 6.4 0.00 0.30 0.10 91 1009.7
20260506031513 13 257 1.6 4.8 0.00 0.38 0.10 91 1009.8
20260506030004 13 261 4.8 6.4 0.00 0.56 0.10 91 1010.0
20260506024510 13 240 3.2 6.4 0.00 0.79 0.08 91 1010.1
20260506023009 13 246 3.2 6.4 0.00 0.89 0.08 91 1010.0
20260506021512 13 246 3.2 6.4 0.00 0.97 0.08 91 1010.3
20260506020012 13 251 3.2 6.4 0.00 1.02 0.08 91 1010.4
20260506014507 13 247 3.2 6.4 0.00 1.12 0.08 91 1010.4